Milwaukee, WI

6:48 PM CST on December 05, 2016 (GMT -0600)
Gen Mitchell International

Weather History for KMKE - May, 2013

Change the Weather History Date:

Tuesday, May 28, 2013

  Actual Average Record
Temperature  
Mean Temperature 62 °F 60 °F  
Max Temperature 75 °F 69 °F 93 °F (1991)
Min Temperature 49 °F 50 °F 36 °F (1894)
Degree Days  
Heating Degree Days 3 7  
Month to date heating degree days 301 295  
Since 1 July heating degree days 6742 6792  
Cooling Degree Days 0 1  
Month to date cooling degree days 19 18  
Year to date cooling degree days 22 23  
Growing Degree Days 12 (Base 50)    
Moisture  
Dew Point 56 °F    
Average Humidity 87    
Maximum Humidity 100    
Minimum Humidity 73    
Precipitation  
Precipitation 1.17 in 0.11 in 1.62 in (1915)
Month to date precipitation 3.95 3.05  
Year to date precipitation 19.16 12.29  
Snow  
Snow 0.00 in 0.00 in 0.00 in ()
Month to date snowfall 0.0 0.1  
Since 1 July snowfall 45.0 46.9  
Snow Depth 0.00 in    
Sea Level Pressure  
Sea Level Pressure 29.79 in    
Wind  
Wind Speed 4 mph (ESE)    
Max Wind Speed 16 mph    
Max Gust Speed 21 mph    
Visibility 3 miles    
Events Fog , Rain , Thunderstorm    
T = Trace of Precipitation, MM = Missing Value Source: NWS Daily Summary

Daily Weather History Graph

Daily Weather History Graph

Search for Another Location

Airport or City:

Trip Planner

Search our weather history database for the weather conditions in past years. The results will help you decide how hot, cold, wet, or windy it might be!

Date:

Astronomy

May. 28, 2013 Rise Set
Actual Time 5:17 AM CDT 8:20 PM CDT
Civil Twilight 4:43 AM CDT 8:55 PM CDT
Nautical Twilight 3:59 AM CDT 9:38 PM CDT
Astronomical Twilight 3:08 AM CDT 10:30 PM CDT
Moon 11:40 PM CDT (5/28) 9:07 AM CDT (5/28)
Length of Visible Light 16h 11m
Length of Day
15h 03m
Waning Gibbous, 82% of the Moon is Illuminated
May 28
Waning Gibbous
May 31
Last Quarter
Jun 8
New
Jun 16
First Quarter
Jun 23
Full

Hourly Weather History & Observations

Time (CDT) Temp. Dew Point Humidity Pressure Visibility Wind Dir Wind Speed Gust Speed Precip Events Conditions
12:22 AM 50.0 °F 48.2 °F 94% 29.90 in 2.0 mi ESE 5.8 mph - N/A   Overcast
12:52 AM 50.0 °F 48.9 °F 96% 29.91 in 2.0 mi SE 5.8 mph - 0.00 in   Light Drizzle
1:17 AM 48.2 °F 48.2 °F 100% 29.89 in 1.5 mi East 4.6 mph - 0.00 in   Light Drizzle
1:38 AM 48.2 °F 48.2 °F 100% 29.87 in 1.0 mi East 5.8 mph - 0.00 in   Light Drizzle
1:52 AM 48.9 °F 48.0 °F 97% 29.88 in 1.0 mi East 5.8 mph - 0.00 in   Light Drizzle
2:52 AM 48.9 °F 48.9 °F 100% 29.84 in 1.0 mi ESE 4.6 mph - 0.01 in Rain Light Rain
3:52 AM 48.9 °F 48.9 °F 100% 29.84 in 1.0 mi NE 4.6 mph - 0.06 in Rain Light Rain
4:27 AM 48.2 °F 48.2 °F 100% 29.83 in 1.0 mi East 3.5 mph - 0.07 in Rain , Thunderstorm Light Thunderstorms and Rain
4:52 AM 48.9 °F 48.9 °F 100% 29.83 in 1.0 mi ESE 6.9 mph - 0.07 in   Overcast
5:52 AM 50.0 °F 50.0 °F 100% 29.82 in 1.0 mi ESE 4.6 mph - 0.02 in Rain Light Rain
6:07 AM 50.0 °F 50.0 °F 100% 29.80 in 1.0 mi East 4.6 mph - 0.02 in Rain , Thunderstorm Light Thunderstorms and Rain
6:52 AM 50.0 °F 50.0 °F 100% 29.82 in 1.0 mi Calm Calm - 0.24 in Rain , Thunderstorm Thunderstorms and Rain
7:52 AM 51.1 °F 50.0 °F 96% 29.81 in 1.0 mi Calm Calm - 0.44 in Rain Light Rain
8:14 AM 50.0 °F 50.0 °F 100% 29.81 in 1.0 mi NNE 4.6 mph - 0.00 in Rain , Thunderstorm Light Thunderstorms and Rain
8:21 AM 50.0 °F 50.0 °F 100% 29.79 in 0.2 mi ENE 5.8 mph - 0.12 in Rain , Thunderstorm Light Thunderstorms and Rain
8:52 AM 52.0 °F 51.1 °F 97% 29.79 in 0.2 mi East 4.6 mph - 0.12 in Fog Fog
9:43 AM 53.6 °F 53.6 °F 100% 29.77 in 1.5 mi Calm Calm - 0.01 in Rain Light Rain
9:52 AM 54.0 °F 53.1 °F 97% 29.77 in 1.5 mi ENE 5.8 mph - 0.01 in Rain Light Rain
10:30 AM 53.6 °F 53.6 °F 100% 29.77 in 3.0 mi South 3.5 mph - 0.00 in   Overcast
10:52 AM 55.9 °F 55.9 °F 100% 29.76 in 3.0 mi SSE 5.8 mph - 0.00 in   Overcast
11:10 AM 60.8 °F 59.0 °F 94% 29.76 in 3.0 mi South 6.9 mph - N/A   Mostly Cloudy
11:52 AM 64.9 °F 62.1 °F 90% 29.76 in 5.0 mi SSW 9.2 mph - N/A   Overcast
12:17 PM 66.2 °F 62.6 °F 88% 29.76 in 5.0 mi SSW 4.6 mph - N/A   Overcast
12:28 PM 69.8 °F 64.4 °F 83% 29.76 in 6.0 mi SSW 5.8 mph - N/A   Overcast
12:52 PM 72.0 °F 64.9 °F 78% 29.75 in 10.0 mi SW 12.7 mph - N/A   Mostly Cloudy
1:41 PM 73.4 °F 64.4 °F 73% 29.75 in 10.0 mi SSW 10.4 mph 19.6 mph N/A   Mostly Cloudy
1:49 PM 73.4 °F 64.4 °F 73% 29.75 in 10.0 mi SW 11.5 mph 19.6 mph N/A   Overcast
1:52 PM 73.0 °F 64.0 °F 73% 29.75 in 10.0 mi SW 10.4 mph - N/A   Overcast
2:50 PM 69.8 °F 64.4 °F 83% 29.76 in 1.8 mi SW 10.4 mph - 0.00 in Rain Light Rain
2:52 PM 69.1 °F 66.0 °F 90% 29.76 in 1.8 mi SW 10.4 mph - 0.00 in Rain Light Rain
3:22 PM 68.0 °F 66.2 °F 94% 29.75 in 3.0 mi WSW 5.8 mph - 0.01 in Rain Light Rain
3:52 PM 69.1 °F 66.9 °F 93% 29.75 in 7.0 mi SW 3.5 mph - 0.01 in   Overcast
4:52 PM 70.0 °F 66.9 °F 90% 29.75 in 5.0 mi Calm Calm - N/A   Overcast
5:52 PM 66.9 °F 64.9 °F 93% 29.74 in 5.0 mi Calm Calm - 0.00 in Rain Light Rain
6:52 PM 68.0 °F 66.0 °F 93% 29.73 in 3.0 mi Calm Calm - 0.00 in   Overcast
7:52 PM 66.9 °F 64.9 °F 93% 29.73 in 3.0 mi Calm Calm - N/A   Overcast
8:52 PM 63.0 °F 61.0 °F 93% 29.70 in 3.0 mi ENE 5.8 mph - 0.00 in   Overcast
9:19 PM 60.8 °F 60.8 °F 100% 29.75 in 3.0 mi East 3.5 mph - N/A Thunderstorm Overcast
9:39 PM 59.0 °F 57.2 °F 94% 29.76 in 3.0 mi ENE 4.6 mph - 0.00 in Rain , Thunderstorm Light Thunderstorms and Rain
9:52 PM 57.0 °F 57.0 °F 100% 29.79 in 1.5 mi Calm Calm - 0.11 in Rain , Thunderstorm Thunderstorms and Rain
10:11 PM 55.4 °F 55.4 °F 100% 29.77 in 2.0 mi Calm Calm - 0.08 in Rain , Thunderstorm Light Thunderstorms and Rain
10:20 PM 55.4 °F 55.4 °F 100% 29.78 in 4.0 mi Calm Calm - 0.08 in Thunderstorm Mostly Cloudy
10:35 PM 55.4 °F 53.6 °F 94% 29.79 in 4.0 mi East 6.9 mph - 0.08 in   Mostly Cloudy
10:41 PM 53.6 °F 53.6 °F 100% 29.79 in 0.5 mi NE 5.8 mph - 0.08 in Fog Fog
10:48 PM 53.6 °F 53.6 °F 100% 29.78 in 1.2 mi NE 6.9 mph - 0.08 in Rain Light Rain
10:52 PM 54.0 °F 53.1 °F 97% 29.77 in 0.5 mi NNE 10.4 mph - 0.08 in Fog , Rain Light Rain
11:52 PM 53.1 °F 52.0 °F 96% 29.81 in 0.5 mi Calm Calm - 0.00 in Fog Fog